Lexington Weather

Lexington, Massachusetts, USA

46°F
10/26/2020 5:24am 
  • Lexington Conditions: Overcast
  • Temperature: 45.5°F / 7.5°CWarmer 0.4°F than last hour.
  • Dew Point: 40.3°FIncreased 0.9°Fsince last hour.
  • Relative Humidity: 82%Increased 2.0% since last hour.
  • Wind: Wind from WNW WNW 1 mph, 10-min avg: 1 mph, gust: 3 mph
  • Barometer: 30.28 in Steady
  • Visibility: 10 miles
  • Rain Today: 0.00 in
  •   

Regional Weather Roundup
for Boston / Norton, MA

        
000
ASUS41 KBOX 230504
RWRBOX

REGIONAL WEATHER ROUNDUP
NATIONAL WEATHER SERVICE BOSTON/NORTON MA
100 AM EDT FRI OCT 23 2020

NOTE:  "FAIR" INDICATES FEW OR NO CLOUDS BELOW 12,000 FEET WITH NO 
SIGNIFICANT WEATHER AND/OR OBSTRUCTIONS TO VISIBILITY.

MAZALL-230600-
EASTERN MASSACHUSETTS
  
CITY           SKY/WX    TMP DP  RH WIND       PRES   REMARKS
BOSTON         FOG       55  55 100 E5        30.27F VSB 1/2          
BEVERLY        CLOUDY    58  56  93 CALM      30.27S                  
LAWRENCE       CLOUDY    56  55  97 NE3       30.29S                  
BEDFORD        CLOUDY    56  56 100 E5        30.25F FOG              
BLUE HILL        N/A     55  54  96 NE7       30.25F                  
NORWOOD        CLOUDY    58  55  90 NE3       30.26S FOG              
MARSHFIELD     FOG       57  57 100 CALM      30.26F VSB 1/4          
PLYMOUTH       FOG       55  54  96 NE5       30.26F VSB 1/2          
TAUNTON        CLOUDY    57  54  89 NE3       30.25F                  
NEW BEDFORD    FOG       57  56  96 NE3       30.25F VSB 1/4          
$$

MAZALL-230600-
CAPE COD AND THE ISLANDS
  
CITY           SKY/WX    TMP DP  RH WIND       PRES   REMARKS
FALMOUTH       FOG       55  55 100 CALM      30.26F VSB 1/4          
HYANNIS        FOG       56  56 100 NE5       30.25S VSB 1/2          
CHATHAM        FOG       57  56  96 NE5       30.27S VSB 1/2          
PROVINCETOWN   FOG       56  56 100 E3        30.27F VSB 3/4          
NANTUCKET      FOG      N/A N/A N/A NE7       30.25F VSB 1/4          
MARTHAS VNYRD  FOG       57  57 100 NE3       30.25S VSB 1/4          
$$
 
MAZALL-230600-
CENTRAL AND WESTERN MASSACHUSETTS
  
CITY           SKY/WX    TMP DP  RH WIND       PRES   REMARKS
WORCESTER      CLOUDY    58  53  84 NE5       30.25F                  
FITCHBURG      CLOUDY    57  53  86 E3        30.27F                  
ORANGE         CLOUDY    63  60  90 CALM      30.24S                  
SPRINGFIELD    CLOUDY    65  62  87 SW6       30.21S                  
WESTFIELD      CLOUDY    65  63  93 S9        30.21F                  
NORTH ADAMS    CLEAR     54  52  93 CALM      30.21S                  
PITTSFIELD     CLOUDY    62  59  90 CALM      30.21F                  
$$
 
RIZALL-230600-
RHODE ISLAND
  
CITY           SKY/WX    TMP DP  RH WIND       PRES   REMARKS
PROVIDENCE     CLOUDY    62  57  83 SE5       30.25F                  
NEWPORT        CLOUDY    58  57  97 E6        30.25S                  
BLOCK ISLAND   CLOUDY    61  61 100 CALM      30.25S FOG              
SMITHFIELD     CLOUDY    60  58  92 E5          N/A                   
WESTERLY       CLOUDY    62  60  93 CALM      30.24F FOG              
$$
 
CTZALL-230600-
CONNECTICUT
  
CITY           SKY/WX    TMP DP  RH WIND       PRES   REMARKS
BRADLEY INTL   CLOUDY    66  61  84 S7        30.21F                  
HARTFORD       CLOUDY    67  62  84 CALM      30.22F                  
BRIDGEPORT     CLOUDY    67  63  87 CALM      30.22F                  
DANBURY        CLOUDY    63  61  93 CALM      30.24F FOG              
GROTON         CLOUDY    62  62 100 CALM      30.23F FOG              
NEW HAVEN      CLOUDY    66  64  93 E7        30.22F FOG              
CHESTER        FOG       63  63 100 SE3       30.24S VSB 1/4          
MERIDEN        CLOUDY    66  60  81 CALM      30.22F                  
WILLIMANTIC    CLOUDY    65  61  87 S3        30.24F                  
OXFORD         CLOUDY    62  62 100 CALM      30.24F FOG              
$$

MEZ002-015-021-024-NHZ003-005-008-011-012-014-VTZ005-008-230600-
NORTHERN NEW ENGLAND
  
CITY           SKY/WX    TMP DP  RH WIND       PRES   REMARKS
PORTLAND ME    CLOUDY    53  52  96 N3        30.30S                  
BANGOR ME      CLOUDY    53  44  71 CALM      30.31F                  
CONCORD NH     CLOUDY    54  51  90 CALM      30.27F                  
MANCHESTER NH  CLOUDY    56  52  86 CALM      30.26F                  
NASHUA NH      CLOUDY    56  56 100 CALM      30.27F                  
PORTSMOUTH NH  CLOUDY    56  54  94 NE3       30.26S                  
JAFFREY NH     CLOUDY    58  53  84 CALM      30.26S                  
KEENE NH       CLOUDY    62  57  83 CALM      30.23F                  
BURLINGTON VT  CLOUDY    55  47  74 CALM      30.20F                  
MT. WASHINGTON LGT RAIN  45  45 100 W38         N/A  VSB 0            
$$

NYZ052-076-230600-
EASTERN NEW YORK
  
CITY           SKY/WX    TMP DP  RH WIND       PRES   REMARKS
ALBANY         MOCLDY    53  53 100 CALM      30.21F                  
NEW YORK CITY  CLOUDY    66  62  87 S8        30.21F FOG              
$$
 
ANZALL-230600-
MARINE OBSERVATIONS
  
STATION/POSITION TIME  TEMP    WIND        PRES    VSBY  WAVE
                       AIR SEA DIR/SP/G                  HT/PER
                 (UTC) (F)     (DEG/KT/KT) (MB)    (MI)  (FT/S)
BOSTON BUOY      0450   56 58  120/  4/  4 1024.1F         4/11
BUZZARDS BAY     0400           80/  4/  5 1025.6F
NANTUCKET SOUND  0440      62   80/  6/  8   N/A
MASS BAY-STELLWA 0404   57 57  100/  6/  8 1024.7F  1 7/8  4/11
ISLE OF SHOALS   0400   56      70/  8/  8 1024.9F
S OF BLOCK IS    0426      63                N/A           5/12
$$

......................KEY.........................
  SKY/WX - SKY CONDITION/PRESENT WEATHER
  TMP    - TEMPERATURE IN FAHRENHEIT
  DWPT   - DEWPOINT IN FAHRENHEIT
  RH     - RELATIVE HUMIDITY IN PERCENT
  WIND   - DIRECTION AND SPEED IN MPH
  PRES   - MEAN SEA LEVEL PRESSURE IN INCHES OF HG
  WCI    - WIND CHILL INDEX
  VSB    - VISIBILITY IN MILES
  HX     - HEAT INDEX
  TC     - TEMPERATURE IN CELSIUS
  VRB    - VARIABLE WIND DIRECTION
  N/A    - NOT AVAILABLE
  
      

Other recent Regional Weather Roundups

Mon Oct 26, 5:04am

Mon Oct 26, 4:04am

Mon Oct 26, 3:04am

Mon Oct 26, 2:04am

Mon Oct 26, 1:04am

Mon Oct 26, 12:04am

Sun Oct 25, 11:05pm

Sun Oct 25, 10:04pm

Sun Oct 25, 9:04pm

Sun Oct 25, 8:04pm

Sun Oct 25, 7:04pm

Sun Oct 25, 6:04pm

Sun Oct 25, 5:04pm

Sun Oct 25, 4:05pm

Sun Oct 25, 3:04pm

Sun Oct 25, 2:04pm

Sun Oct 25, 1:04pm

Sun Oct 25, 12:04pm

Sun Oct 25, 11:04am

Sun Oct 25, 10:04am

Sun Oct 25, 9:04am

Sun Oct 25, 8:04am

Sun Oct 25, 7:04am

Sun Oct 25, 6:04am

Sun Oct 25, 5:04am

Sun Oct 25, 4:04am

Sun Oct 25, 3:04am

Sun Oct 25, 2:04am

Sun Oct 25, 1:05am

Sun Oct 25, 12:04am

Sat Oct 24, 11:04pm

Sat Oct 24, 10:04pm

Sat Oct 24, 9:04pm

Sat Oct 24, 8:04pm

Sat Oct 24, 7:04pm

Sat Oct 24, 6:04pm

Sat Oct 24, 5:05pm

Sat Oct 24, 4:04pm

Sat Oct 24, 3:04pm

Sat Oct 24, 2:04pm

Sat Oct 24, 1:05pm

Sat Oct 24, 12:04pm

Sat Oct 24, 11:05am

Sat Oct 24, 10:05am

Sat Oct 24, 9:04am

Sat Oct 24, 8:04am

Sat Oct 24, 7:04am

Sat Oct 24, 6:04am

Sat Oct 24, 5:04am

Sat Oct 24, 4:04am

Sat Oct 24, 3:04am

Sat Oct 24, 2:04am

Sat Oct 24, 1:05am

Sat Oct 24, 12:04am

Fri Oct 23, 11:04pm

Fri Oct 23, 10:04pm

Fri Oct 23, 9:04pm

Fri Oct 23, 8:05pm

Fri Oct 23, 7:04pm

Fri Oct 23, 6:04pm

Fri Oct 23, 5:05pm

Fri Oct 23, 4:04pm

Fri Oct 23, 3:04pm

Fri Oct 23, 2:05pm

Fri Oct 23, 1:04pm

Fri Oct 23, 12:04pm

Fri Oct 23, 11:04am

Fri Oct 23, 10:04am

Fri Oct 23, 9:04am

Fri Oct 23, 8:04am

Fri Oct 23, 7:04am

Fri Oct 23, 6:04am

Fri Oct 23, 5:04am

Fri Oct 23, 4:04am

Fri Oct 23, 3:04am

Fri Oct 23, 2:04am

Fri Oct 23, 12:04am

Thu Oct 22, 11:04pm

Thu Oct 22, 10:04pm

Thu Oct 22, 9:05pm

Thu Oct 22, 8:04pm

Thu Oct 22, 7:05pm

Thu Oct 22, 6:04pm

Thu Oct 22, 5:04pm

Thu Oct 22, 4:05pm

Thu Oct 22, 3:04pm

Thu Oct 22, 2:05pm

Thu Oct 22, 1:04pm

Thu Oct 22, 12:04pm

Thu Oct 22, 11:04am

Thu Oct 22, 10:05am

Thu Oct 22, 9:04am

Thu Oct 22, 8:05am

Thu Oct 22, 7:04am

Thu Oct 22, 6:04am

Thu Oct 22, 5:04am

Thu Oct 22, 4:04am

Thu Oct 22, 3:04am

Thu Oct 22, 2:04am

Thu Oct 22, 1:04am

Thu Oct 22, 12:04am

Wed Oct 21, 11:05pm

Wed Oct 21, 10:04pm

Wed Oct 21, 9:04pm

Wed Oct 21, 8:04pm

Wed Oct 21, 7:04pm

Wed Oct 21, 6:04pm

Wed Oct 21, 5:05pm

Wed Oct 21, 4:04pm

Wed Oct 21, 3:04pm

Wed Oct 21, 2:05pm

Wed Oct 21, 1:04pm

Wed Oct 21, 12:04pm

Wed Oct 21, 11:04am

Wed Oct 21, 10:04am

Wed Oct 21, 9:04am

Wed Oct 21, 8:04am

Wed Oct 21, 7:04am

Wed Oct 21, 6:04am

Wed Oct 21, 5:04am

Wed Oct 21, 4:04am

Wed Oct 21, 3:04am

Wed Oct 21, 2:04am

Wed Oct 21, 1:04am

Wed Oct 21, 12:04am

Tue Oct 20, 11:05pm

Tue Oct 20, 10:04pm

Tue Oct 20, 9:04pm

Tue Oct 20, 8:05pm

Tue Oct 20, 7:04pm

Tue Oct 20, 6:04pm

Tue Oct 20, 5:05pm

Tue Oct 20, 4:04pm

Tue Oct 20, 3:05pm

Tue Oct 20, 2:07pm

Tue Oct 20, 1:04pm

Tue Oct 20, 12:04pm

Tue Oct 20, 11:04am

Tue Oct 20, 10:05am

Tue Oct 20, 9:04am

Tue Oct 20, 8:04am

Tue Oct 20, 7:04am

Tue Oct 20, 6:04am

Tue Oct 20, 5:04am

Tue Oct 20, 4:04am

Tue Oct 20, 3:04am

Tue Oct 20, 2:04am

Tue Oct 20, 1:04am

Tue Oct 20, 12:04am

Mon Oct 19, 11:04pm

Mon Oct 19, 10:04pm

Mon Oct 19, 9:04pm

Mon Oct 19, 8:04pm

Mon Oct 19, 7:04pm

Mon Oct 19, 6:04pm

Mon Oct 19, 5:04pm

Mon Oct 19, 4:04pm

Mon Oct 19, 3:04pm

Mon Oct 19, 2:04pm

Mon Oct 19, 1:05pm

Mon Oct 19, 12:04pm

Mon Oct 19, 11:04am

Mon Oct 19, 10:04am

Mon Oct 19, 9:04am

Mon Oct 19, 8:04am

Mon Oct 19, 7:04am

Mon Oct 19, 6:04am

Mon Oct 19, 5:04am

Meta data:

ID: 2e6b2bec-2f0c-43d8-9a0b-80212f2f2bcd
Link: https://api.weather.gov/products/2e6b2bec-2f0c-43d8-9a0b-80212f2f2bcd